Weather History for Montevideo, MN

Change the Weather History Date:

Thursday, January 17, 2013

  Actual Average Record
Temperature  
Mean Temperature 16 °F -  
Max Temperature 32 °F 21 °F 43 °F (1981)
Min Temperature 0 °F 2 °F -30 °F (1977)
Degree Days  
Heating Degree Days 49    
Moisture  
Dew Point 4 °F    
Average Humidity 72    
Maximum Humidity 86    
Minimum Humidity 55    
Precipitation  
Precipitation 0.00 in - - ()
Sea Level Pressure  
Sea Level Pressure 30.35 in    
Wind  
Wind Speed 7 mph (NW)    
Max Wind Speed 13 mph    
Max Gust Speed -    
Visibility 10 miles    
Events      
Averages and records for this station are not official NWS values.
T = Trace of Precipitation, MM = Missing Value Source: NWS Daily Summary

Daily Weather History Graph

Daily Weather History Graph

Search for Another Location

Airport:

Trip Planner

Search our weather history database for the weather conditions in past years. The results will help you decide how hot, cold, wet, or windy it might be!

Date:

Astronomy

Jan. 17, 2013 Rise Set
Actual Time 7:55 AM CST 5:10 PM CST
Civil Twilight 7:23 AM CST 5:43 PM CST
Nautical Twilight 6:47 AM CST 6:19 PM CST
Astronomical Twilight 6:12 AM CST 6:54 PM CST
Moon 10:44 AM CST (1/17) No Moon Set
Length of Visible Light 10h 19m
Length of Day
9h 14m
Waxing Crescent, 38% of the Moon is Illuminated
Jan 17
Waxing Crescent
Jan 18
First Quarter
Jan 26
Full
Feb 3
Last Quarter
Feb 10
New

Hourly Weather History & Observations

Time (CST) Temp. Windchill Dew Point Humidity Pressure Visibility Wind Dir Wind Speed Gust Speed Precip Events Conditions
12:14 AM -0.4 °F -15.7 °F -9.4 °F 66% 30.28 in 10.0 mi North 9.2 mph - N/A   Clear
12:34 AM -0.4 °F -13.4 °F -11.2 °F 60% 30.31 in 10.0 mi North 6.9 mph - N/A   Clear
12:54 AM -0.4 °F -13.4 °F -11.2 °F 60% 30.32 in 10.0 mi NNW 6.9 mph - N/A   Clear
1:14 AM -0.4 °F -10.4 °F -11.2 °F 60% 30.33 in 10.0 mi NW 4.6 mph - N/A   Clear
1:34 AM -0.4 °F -14.7 °F -11.2 °F 60% 30.35 in 10.0 mi NW 8.1 mph - N/A   Clear
1:54 AM -0.4 °F -13.4 °F -9.4 °F 66% 30.34 in 10.0 mi NNW 6.9 mph - N/A   Clear
2:14 AM -0.4 °F -12.0 °F -9.4 °F 66% 30.34 in 10.0 mi NW 5.8 mph - N/A   Clear
2:34 AM -0.4 °F -13.4 °F -7.6 °F 72% 30.35 in 10.0 mi NW 6.9 mph - N/A   Clear
2:54 AM -0.4 °F -12.0 °F -7.6 °F 72% 30.36 in 10.0 mi NW 5.8 mph - N/A   Clear
3:14 AM -0.4 °F -13.4 °F -7.6 °F 72% 30.37 in 10.0 mi NNW 6.9 mph - N/A   Mostly Cloudy
3:34 AM -0.4 °F -13.4 °F -7.6 °F 72% 30.38 in 10.0 mi NW 6.9 mph - N/A   Overcast
3:54 AM 1.4 °F -11.3 °F -7.6 °F 66% 30.36 in 10.0 mi NW 6.9 mph - N/A   Overcast
4:14 AM 1.4 °F -8.3 °F -7.6 °F 66% 30.35 in 10.0 mi WNW 4.6 mph - N/A   Overcast
4:34 AM 1.4 °F -6.2 °F -7.6 °F 66% 30.36 in 10.0 mi WNW 3.5 mph - N/A   Overcast
4:54 AM 1.4 °F -8.3 °F -7.6 °F 66% 30.36 in 10.0 mi West 4.6 mph - N/A   Overcast
5:14 AM 3.2 °F -6.2 °F -5.8 °F 66% 30.36 in 10.0 mi West 4.6 mph - N/A   Overcast
5:34 AM 3.2 °F -6.2 °F -5.8 °F 66% 30.36 in 10.0 mi WSW 4.6 mph - N/A   Overcast
6:14 AM 5.0 °F -2.1 °F -4.0 °F 66% 30.35 in 10.0 mi West 3.5 mph - N/A   Overcast
6:34 AM 5.0 °F -8.1 °F -4.0 °F 66% 30.35 in 10.0 mi West 8.1 mph - N/A   Overcast
6:54 AM 6.8 °F -4.8 °F -2.2 °F 67% 30.34 in 10.0 mi WSW 6.9 mph - N/A   Overcast
7:14 AM 6.8 °F -2.0 °F -0.4 °F 72% 30.34 in 10.0 mi WSW 4.6 mph - N/A   Overcast
7:34 AM 6.8 °F -3.5 °F -0.4 °F 72% 30.33 in 10.0 mi WSW 5.8 mph - N/A   Overcast
7:54 AM 6.8 °F -3.5 °F -0.4 °F 72% 30.33 in 10.0 mi WSW 5.8 mph - N/A   Overcast
8:13 AM 8.6 °F 2.0 °F -0.4 °F 67% 30.33 in 10.0 mi SW 3.5 mph - N/A   Overcast
8:34 AM 8.6 °F 0.1 °F 1.4 °F 73% 30.34 in 10.0 mi WSW 4.6 mph - N/A   Overcast
8:54 AM 8.6 °F -2.6 °F -0.4 °F 67% 30.35 in 10.0 mi WSW 6.9 mph - N/A   Overcast
9:14 AM 10.4 °F -0.4 °F 1.4 °F 67% 30.36 in 10.0 mi WSW 6.9 mph - N/A   Mostly Cloudy
9:34 AM 10.4 °F -1.5 °F 1.4 °F 67% 30.36 in 10.0 mi WSW 8.1 mph - N/A   Scattered Clouds
9:54 AM 12.2 °F 1.7 °F 3.2 °F 67% 30.38 in 10.0 mi West 6.9 mph - N/A   Scattered Clouds
10:14 AM 12.2 °F -0.2 °F 5.0 °F 73% 30.39 in 10.0 mi West 9.2 mph - N/A   Overcast
10:34 AM 14.0 °F 3.9 °F 6.8 °F 73% 30.39 in 10.0 mi West 6.9 mph - N/A   Overcast
10:54 AM 15.8 °F 8.6 °F 8.6 °F 73% 30.39 in 10.0 mi West 4.6 mph - N/A   Overcast
11:14 AM 17.6 °F 7.3 °F 10.4 °F 73% 30.39 in 10.0 mi West 8.1 mph - N/A   Scattered Clouds
11:34 AM 17.6 °F 7.3 °F 10.4 °F 73% 30.39 in 10.0 mi WNW 8.1 mph - N/A   Clear
11:54 AM 19.4 °F 11.5 °F 12.2 °F 74% 30.39 in 10.0 mi NW 5.8 mph - N/A   Clear
12:14 PM 21.2 °F 12.6 °F 14.0 °F 74% 30.38 in 10.0 mi NW 6.9 mph - N/A   Clear
12:33 PM 21.2 °F 12.6 °F 15.8 °F 80% 30.38 in 10.0 mi NNW 6.9 mph - N/A   Mostly Cloudy
12:54 PM 23.0 °F 14.7 °F 15.8 °F 74% 30.38 in 10.0 mi North 6.9 mph - N/A   Scattered Clouds
1:14 PM 21.2 °F 9.5 °F 15.8 °F 80% 30.38 in 10.0 mi NNW 11.5 mph - N/A   Mostly Cloudy
1:34 PM 21.2 °F 10.1 °F 17.6 °F 86% 30.37 in 10.0 mi North 10.4 mph - N/A   Overcast
1:54 PM 32.0 °F 22.5 °F 17.6 °F 55% 30.37 in 10.0 mi North 12.7 mph - N/A   Mostly Cloudy
2:14 PM 21.2 °F 8.9 °F 17.6 °F 86% 30.37 in 10.0 mi NE 12.7 mph - N/A   Mostly Cloudy
2:34 PM 21.2 °F 9.5 °F 15.8 °F 80% 30.38 in 10.0 mi NNE 11.5 mph - N/A   Mostly Cloudy
2:54 PM 19.4 °F 6.6 °F 14.0 °F 80% 30.38 in 10.0 mi NNE 12.7 mph - N/A   Mostly Cloudy
3:14 PM 17.6 °F 5.0 °F 12.2 °F 79% 30.38 in 10.0 mi NNE 11.5 mph - N/A   Overcast
3:34 PM 17.6 °F 6.4 °F 12.2 °F 79% 30.38 in 10.0 mi NNE 9.2 mph - N/A   Overcast
3:54 PM 17.6 °F 4.3 °F 8.6 °F 68% 30.37 in 10.0 mi NNE 12.7 mph - N/A   Mostly Cloudy
4:13 PM 15.8 °F 5.1 °F 8.6 °F 73% 30.39 in 10.0 mi North 8.1 mph - N/A   Overcast
4:34 PM 15.8 °F 4.2 °F 8.6 °F 73% 30.39 in 10.0 mi NNE 9.2 mph - N/A   Overcast
4:54 PM 15.8 °F 5.1 °F 8.6 °F 73% 30.39 in 10.0 mi North 8.1 mph - N/A   Overcast
5:14 PM 15.8 °F 6.1 °F 8.6 °F 73% 30.38 in 10.0 mi NNE 6.9 mph - N/A   Overcast
5:34 PM 15.8 °F 7.2 °F 8.6 °F 73% 30.38 in 10.0 mi North 5.8 mph - N/A   Overcast
5:54 PM 15.8 °F - 8.6 °F 73% 30.37 in 10.0 mi Calm Calm - N/A   Overcast
6:14 PM 15.8 °F 8.6 °F 8.6 °F 73% 30.37 in 10.0 mi NNE 4.6 mph - N/A   Overcast
6:34 PM 15.8 °F - 8.6 °F 73% 30.36 in 10.0 mi Calm Calm - N/A   Overcast
6:54 PM 15.8 °F - 8.6 °F 73% 30.37 in 10.0 mi Calm Calm - N/A   Overcast
7:14 PM 15.8 °F - 8.6 °F 73% 30.36 in 10.0 mi Calm Calm - N/A   Overcast
7:34 PM 15.8 °F - 6.8 °F 68% 30.35 in 10.0 mi Calm Calm - N/A   Overcast
7:54 PM 15.8 °F - 8.6 °F 73% 30.35 in 10.0 mi Calm Calm - N/A   Overcast
8:14 PM 15.8 °F - 8.6 °F 73% 30.34 in 10.0 mi Calm Calm - N/A   Overcast
8:54 PM 15.8 °F 8.6 °F 8.6 °F 73% 30.31 in 10.0 mi SE 4.6 mph - N/A   Overcast
9:14 PM 15.8 °F 7.2 °F 8.6 °F 73% 30.31 in 10.0 mi SE 5.8 mph - N/A   Overcast
9:34 PM 15.8 °F 8.6 °F 8.6 °F 73% 30.30 in 10.0 mi SSE 4.6 mph - N/A   Overcast
9:54 PM 15.8 °F 6.1 °F 10.4 °F 79% 30.28 in 10.0 mi SSE 6.9 mph - N/A   Overcast
10:14 PM 15.8 °F 6.1 °F 10.4 °F 79% 30.26 in 10.0 mi SSE 6.9 mph - N/A   Overcast
10:34 PM 15.8 °F 4.2 °F 12.2 °F 86% 30.24 in 10.0 mi SSE 9.2 mph - N/A   Overcast
10:54 PM 15.8 °F 4.2 °F 10.4 °F 79% 30.23 in 10.0 mi SSE 9.2 mph - N/A   Overcast
11:14 PM 15.8 °F 4.2 °F 10.4 °F 79% 30.22 in 10.0 mi South 9.2 mph - N/A   Overcast
11:34 PM 15.8 °F 3.4 °F 10.4 °F 79% 30.20 in 10.0 mi South 10.4 mph - N/A   Overcast
11:54 PM 17.6 °F 4.3 °F 10.4 °F 73% 30.18 in 10.0 mi SSE 12.7 mph - N/A   Overcast